Location: Unspecified
(46.5411°N, 0.0000°E)
Time: 10:53:59
(UTC+00:00)

Tiangong 2 - Visible Passes

Search period start: 21 May 2019 00:00
Search period end: 31 May 2019 00:00
Orbit: 379 x 387 km, 42.8° (Epoch: 21 May)

Date Brightness Start Highest point End Pass type
(mag) Time Alt. Az. Time Alt. Az. Time Alt. Az.
21 May 1.7 21:33:31 10° WSW 21:36:04 36° SSW 21:36:04 36° SSW visible
22 May 1.9 20:33:43 10° SW 20:36:33 31° SSE 20:39:08 12° ESE visible
22 May 2.9 22:09:58 10° WSW 22:11:20 22° WSW 22:11:20 22° WSW visible
23 May 1.5 21:10:02 10° WSW 21:13:01 41° S 21:14:11 27° SE visible
24 May 1.7 20:10:08 10° WSW 20:13:04 37° S 20:16:01 10° ESE visible
24 May 1.9 21:46:35 10° WSW 21:49:04 33° SSW 21:49:04 33° SSW visible
25 May 1.6 20:46:34 10° WSW 20:49:32 40° S 20:51:42 16° ESE visible
25 May 3.6 22:23:24 10° WSW 22:23:52 13° WSW 22:23:52 13° WSW visible
26 May 2.1 21:23:12 10° WSW 21:25:58 28° SSW 21:26:26 27° S visible
27 May 1.9 20:23:07 10° WSW 20:26:02 35° S 20:28:57 10° ESE visible
27 May 3.5 22:00:21 10° WSW 22:01:08 13° SW 22:01:08 13° SW visible
28 May 2.7 20:59:55 10° WSW 21:02:24 21° SSW 21:03:39 17° SSE visible
30 May 3.2 20:36:49 10° WSW 20:38:45 15° SSW 20:40:40 10° SSE visible
